Theta_e
314 313 311 306 305 305 305 305 305 305 305 305 304 304 307 307 308 312 314 315 314 319 319 318 318 318 317 317 317 315 321 321 318 319 319 315 316 316 315 317 321 320 332 335 335
313 312 311 309 304 303 303 304 304 304 304 304 304 304 307 307 309 312 314 314 315 318 319 317 317 318 316 316 317 319 319 317 316 316 318 316 316 317 317 317 317 321 330 334 335
312 312 311 310 307 303 302 303 303 303 303 304 304 304 306 307 310 312 312 312 316 320 318 318 318 318 318 316 317 317 320 316 317 316 316 317 317 315 317 318 319 320 323 330 336
311 310 309 308 308 306 303 302 303 304 304 304 304 304 306 309 305 312 311 313 316 317 317 317 316 316 317 318 316 319 316 316 316 316 316 317 316 316 316 317 316 317 317 324 333
311 310 307 305 306 306 304 303 302 302 303 304 304 304 307 307 307 311 311 312 314 315 317 316 317 317 318 316 317 318 316 316 315 316 316 316 317 317 316 315 314 314 324 330 333
310 309 305 303 303 303 304 303 302 302 303 303 304 304 308 306 307 311 311 311 315 315 316 316 316 316 317 317 318 315 315 316 315 316 315 316 317 315 315 314 314 314 327 327 330
310 309 304 303 302 302 303 304 304 303 303 304 304 308 307 304 308 311 311 312 314 315 314 316 316 315 316 316 315 316 318 315 314 314 314 314 316 315 314 311 312 314 322 323 327
311 310 309 307 302 301 303 306 306 306 306 306 305 308 304 305 307 311 311 311 313 314 314 315 315 315 316 315 315 314 313 317 313 312 312 313 318 315 312 311 313 313 313 322 328
310 310 310 308 303 301 304 306 306 306 304 306 309 305 304 309 310 310 312 311 313 313 314 315 315 314 314 317 313 310 316 314 314 312 312 314 316 314 312 311 312 313 315 317 324
307 307 308 306 305 302 305 306 307 307 307 308 306 305 303 306 311 311 311 311 312 312 313 314 312 314 312 313 314 313 315 313 314 314 313 315 315 314 311 311 313 313 312 312 317
304 304 304 305 305 304 305 305 301 300 305 304 304 304 304 308 311 311 311 312 311 311 314 314 315 317 314 313 312 313 314 314 312 312 313 314 313 313 313 311 312 313 313 312 315
302 302 302 299 305 305 305 304 304 304 304 303 302 303 306 310 310 309 312 312 312 313 311 312 315 312 311 310 312 313 314 314 312 311 313 314 314 313 312 312 312 312 313 312 313
300 300 301 296 303 304 305 305 305 306 303 302 303 303 303 306 308 308 310 310 312 312 311 310 308 310 312 312 314 313 313 313 315 312 310 311 313 309 309 309 310 311 311 311 313
299 299 299 299 304 305 304 305 304 304 301 303 303 306 306 305 307 306 310 309 311 311 310 311 309 311 312 313 312 315 311 312 313 313 316 311 318 311 309 309 308 309 309 311 314
298 298 299 298 301 305 304 305 304 302 296 301 305 306 306 305 307 309 310 309 309 310 309 307 311 311 313 312 311 313 311 311 310 311 313 311 314 313 307 311 310 309 308 308 310
296 298 298 296 300 304 305 304 304 299 296 301 305 307 308 307 307 308 309 306 305 308 307 308 307 310 310 310 311 310 311 306 307 311 315 310 312 314 310 310 309 308 308 307 307
292 294 297 300 301 304 305 302 299 297 299 301 302 306 306 306 307 309 309 309 308 308 306 303 306 307 310 313 312 312 310 307 306 314 314 300 310 313 309 309 307 308 308 307 307
292 295 301 303 303 304 303 299 298 299 299 300 303 305 306 304 305 307 307 308 305 301 299 303 305 307 308 309 312 311 310 308 309 309 309 306 313 313 308 307 307 307 305 305 306
293 298 300 303 304 304 298 296 299 299 302 303 301 304 304 304 304 306 305 304 304 304 307 303 304 306 309 308 309 311 314 308 310 307 313 310 308 307 306 307 306 307 306 306 305
293 295 297 302 303 302 299 302 300 298 299 301 304 300 300 302 302 305 303 302 304 303 301 302 304 307 308 310 308 310 308 313 310 312 313 309 309 313 309 309 308 308 307 306 304
292 291 295 301 304 304 303 301 300 298 295 300 302 303 302 301 300 301 302 301 298 301 301 302 302 304 310 313 312 311 312 309 309 307 311 310 311 306 308 307 308 307 306 305 305
291 289 294 300 298 299 296 295 294 295 294 295 299 297 297 297 299 301 302 300 294 297 301 302 303 305 309 307 307 308 310 308 311 309 309 305 309 306 306 306 306 306 305 305 304
289 289 293 293 292 290 292 292 294 292 292 293 293 297 294 297 294 294 296 294 294 297 295 298 304 305 305 302 303 312 309 309 305 306 311 311 310 305 305 305 304 305 305 304 304
289 290 290 289 289 287 288 292 292 292 292 293 292 292 292 292 292 294 292 292 293 292 295 296 302 306 307 303 304 309 310 309 310 309 311 311 307 306 306 307 307 305 304 304 304
288 290 292 289 290 289 290 291 292 291 291 292 292 292 292 293 292 292 292 291 292 293 294 294 301 305 306 305 302 304 307 309 311 311 311 309 309 309 307 306 306 305 305 305 304
289 288 288 289 289 290 290 292 292 291 291 291 291 292 292 293 292 292 291 291 291 291 292 295 298 299 298 298 305 306 304 304 308 311 311 310 306 304 305 304 305 304 304 304 303
291 291 290 290 290 288 290 290 291 290 291 290 291 292 292 292 292 291 290 290 291 291 291 292 293 294 296 295 298 305 306 305 304 306 308 311 309 308 308 305 305 304 302 302 301
Wind_Speed
14 14 13 12 12 12 12 12 13 13 13 13 13 14 13 14 15 4 3 3 2 4 6 6 2 3 2 1 1 3 1 3 4 3 4 5 4 2 4 8 5 6 5 4 15
16 16 16 15 13 13 14 14 14 14 14 14 14 14 13 15 13 5 5 4 3 2 2 3 1 3 1 2 1 2 3 6 6 5 6 6 5 11 7 10 8 10 6 4 12
18 18 18 18 16 15 14 14 14 15 15 14 14 13 13 12 4 5 5 4 2 2 2 1 0 1 1 1 3 4 5 4 7 11 9 9 11 6 8 9 12 10 6 7 15
18 18 19 19 19 18 16 14 14 14 14 14 13 12 11 5 4 5 4 4 3 3 3 1 1 2 2 3 3 3 8 7 5 4 4 7 4 5 8 10 16 10 11 10 15
19 19 20 21 21 20 19 16 15 15 14 14 12 9 4 3 8 8 5 5 4 4 5 3 3 3 3 2 2 5 4 7 10 10 10 10 15 14 11 13 14 10 12 11 12
20 21 23 24 24 24 22 18 16 15 15 13 9 5 2 3 3 8 6 7 6 6 4 4 4 3 3 3 3 2 5 10 10 12 6 8 7 7 9 15 14 12 12 10 9
22 23 25 25 25 26 25 20 17 16 14 11 7 4 2 12 6 9 7 6 7 6 4 5 4 3 2 3 3 4 6 8 6 2 4 4 5 7 10 5 10 12 9 12 9
23 25 26 27 26 26 23 20 22 18 14 8 5 5 7 4 10 12 10 7 8 7 5 4 4 2 2 4 4 3 1 4 3 4 2 2 8 6 4 2 9 9 9 9 9
24 26 27 28 26 26 21 21 13 7 1 6 7 4 8 2 6 15 12 6 8 6 5 5 3 2 1 1 3 2 4 4 7 1 3 2 9 11 14 7 10 8 9 7 8
25 27 29 29 27 27 21 18 4 2 7 6 3 1 4 5 6 9 14 10 3 5 3 3 2 1 1 2 4 3 4 4 6 4 3 13 22 18 9 7 12 10 9 9 10
28 28 29 31 27 21 20 5 5 3 1 8 6 6 3 4 8 7 9 9 4 3 5 3 2 9 11 9 3 2 3 8 7 10 5 12 18 19 20 9 13 14 11 9 11
29 30 31 31 25 13 9 4 2 2 9 13 18 4 4 6 4 4 12 6 5 6 5 2 10 10 6 5 5 5 5 8 7 3 5 12 23 22 22 18 12 16 14 12 8
31 31 31 29 18 4 6 4 5 2 3 10 4 4 4 8 6 9 11 6 5 7 8 7 4 4 7 5 4 4 5 4 8 6 4 10 10 6 5 3 4 7 10 10 13
31 32 30 31 2 13 2 8 5 1 4 7 2 2 3 3 3 4 13 5 3 10 6 7 4 6 5 6 8 4 6 6 3 4 3 5 7 7 6 10 6 8 8 10 9
34 32 29 18 13 5 6 12 5 2 4 4 2 2 1 3 3 1 3 2 4 5 5 5 7 5 5 7 10 8 5 4 1 1 5 1 2 8 4 7 7 6 6 8 9
39 36 28 8 6 5 7 6 1 6 7 4 2 2 3 0 0 2 2 3 1 3 3 7 1 4 7 4 8 5 4 4 2 1 3 2 4 6 3 4 4 4 4 3 6
42 34 13 4 3 7 13 2 5 5 2 4 2 1 1 4 3 6 6 6 6 1 4 2 4 3 4 4 1 2 5 2 3 2 5 2 2 11 9 9 6 9 9 6 6
45 19 9 8 8 6 5 5 3 2 6 5 5 1 4 4 4 4 4 4 6 3 2 3 11 9 6 6 7 7 6 4 6 4 2 3 6 6 5 5 5 6 8 4 4
35 13 19 20 9 0 4 3 5 3 6 10 10 3 3 4 1 2 5 4 7 14 9 6 7 3 4 4 7 5 8 3 4 1 1 4 6 9 6 6 4 4 4 4 4
22 6 15 18 9 3 4 2 2 8 8 6 4 7 6 10 7 3 3 1 4 9 4 4 5 4 4 4 2 5 6 3 0 6 6 4 5 6 3 2 3 2 3 4 3
9 4 23 19 4 1 1 1 4 10 12 7 5 7 5 7 7 5 6 5 14 9 4 3 4 3 5 11 11 5 4 3 3 4 4 2 6 6 8 6 6 5 3 5 5
7 3 22 20 4 3 3 5 7 6 4 4 3 5 4 6 5 5 5 7 17 9 8 6 4 5 11 5 4 4 8 8 5 5 4 1 6 3 6 7 4 5 6 5 5
3 2 15 13 4 4 3 3 4 4 5 4 3 0 6 5 7 9 8 13 16 11 10 10 5 4 5 3 2 7 6 8 4 3 9 7 5 1 3 5 7 5 7 7 8
2 4 4 5 2 3 2 5 4 5 6 3 6 4 7 11 10 6 16 10 15 19 25 12 8 12 11 6 3 5 8 15 15 5 9 13 4 6 5 5 6 6 8 8 5
4 1 1 4 3 6 3 4 9 7 4 3 3 5 9 5 12 14 12 21 12 20 8 8 9 13 18 18 8 13 6 10 16 21 10 8 14 17 15 9 8 4 4 9 11
1 1 2 3 3 4 4 4 11 14 6 8 10 17 13 11 16 21 18 16 13 9 12 5 13 14 24 20 17 19 15 13 18 20 20 17 7 7 11 5 7 9 7 9 9
3 5 2 5 3 3 6 6 11 8 11 12 11 9 16 21 15 15 15 17 17 19 21 17 11 13 21 19 17 16 23 25 19 9 14 17 14 13 19 9 9 9 7 9 10
Wind_Direction
10 2 348 333 322 313 310 309 312 315 318 324 331 334 330 331 333 303 244 218 261 334 331 355 104 27 136 123 129 130 99 246 253 218 248 264 268 264 268 268 273 267 259 292 157
10 7 0 349 331 318 310 308 306 306 309 313 322 329 329 330 326 257 214 230 268 296 325 25 13 16 79 172 177 157 191 225 215 215 244 271 254 292 297 299 289 288 263 171 166
7 4 1 356 347 331 317 310 306 305 304 306 310 320 327 330 322 222 178 214 195 211 255 254 264 133 167 162 199 186 224 218 243 244 253 269 271 250 262 277 262 274 278 221 189
8 5 -0 356 351 342 328 312 307 305 304 304 306 314 325 336 308 175 176 173 176 179 180 192 188 169 197 215 206 246 246 242 271 253 276 255 266 256 233 254 265 263 271 267 225
4 0 358 355 350 345 336 323 309 303 305 305 305 312 333 13 250 180 167 178 179 185 187 187 188 170 226 226 278 223 259 258 258 266 262 261 261 257 255 253 260 266 274 256 238
356 354 353 353 350 347 338 325 311 302 299 297 291 289 155 257 183 172 174 182 178 170 179 176 199 196 245 234 202 254 262 268 278 269 248 252 261 154 246 248 262 262 254 272 251
351 349 349 347 347 344 339 332 321 307 294 287 272 220 186 239 196 192 184 193 183 175 164 200 178 164 174 272 266 280 296 305 255 240 277 206 263 218 254 285 273 278 268 274 256
348 346 344 342 342 340 336 331 321 305 290 262 209 177 242 230 208 197 191 191 194 194 198 185 182 187 198 304 322 296 305 317 296 317 222 171 268 259 293 309 293 291 272 271 271
350 347 342 338 337 336 332 327 323 328 335 150 152 164 265 225 209 213 202 178 172 185 190 140 140 193 329 308 330 339 262 255 302 262 274 51 284 266 296 283 275 277 275 277 285
344 343 340 336 341 336 332 327 323 93 113 135 123 69 234 219 178 168 183 167 150 135 102 128 74 172 94 134 244 223 268 255 248 281 293 288 280 281 259 256 265 271 263 272 268
346 341 338 335 340 340 339 338 6 339 213 211 208 226 115 143 147 170 163 143 116 117 180 191 155 218 209 203 205 241 244 261 268 274 284 266 278 278 280 237 249 256 249 235 251
347 343 339 337 336 343 349 60 101 252 298 252 258 273 234 188 143 184 160 149 157 190 146 103 235 225 208 194 209 226 272 274 283 273 280 290 285 280 273 265 234 237 239 230 238
345 342 339 334 333 9 11 33 338 331 270 291 189 177 204 171 202 193 161 158 171 179 192 183 200 109 164 189 200 217 223 235 263 324 256 315 286 323 297 259 249 230 237 229 224
343 342 340 337 73 345 42 354 338 107 13 276 301 296 109 118 239 209 181 146 205 203 180 235 232 197 182 212 165 265 211 241 266 359 300 54 295 299 315 300 275 256 223 233 227
341 338 334 336 299 320 329 324 338 99 344 251 190 159 88 157 131 33 183 74 211 197 145 248 168 177 189 215 163 221 163 173 210 228 310 85 240 273 331 309 310 294 240 228 232
340 336 327 323 268 277 340 334 81 48 258 311 107 136 112 175 83 98 128 64 67 196 257 252 303 197 211 194 183 136 123 62 75 207 263 197 169 282 273 233 318 345 18 252 242
343 341 350 330 315 328 330 20 42 145 318 305 335 155 208 215 211 175 171 183 193 122 241 300 220 258 155 121 13 166 108 330 360 193 231 173 196 252 271 270 241 279 289 272 265
341 353 31 33 325 288 356 59 157 234 296 339 1 312 233 163 251 187 164 232 224 117 126 184 286 183 193 190 182 176 167 177 209 197 230 138 234 248 221 274 247 276 293 275 247
345 17 21 352 331 8 72 104 213 10 307 333 322 289 288 339 241 184 224 228 221 181 192 188 265 169 185 157 144 169 211 197 100 35 333 227 279 286 284 298 218 267 350 29 48
345 349 12 3 38 41 67 299 47 34 333 348 327 38 353 344 331 338 239 194 269 199 19 280 288 201 177 139 147 174 155 115 110 196 228 263 269 235 282 93 118 177 36 28 18
12 32 357 358 324 94 239 309 350 8 17 349 340 313 338 353 325 294 285 17 2 345 339 325 173 265 141 205 177 167 193 188 148 175 187 235 256 212 213 229 231 236 277 270 294
352 48 354 359 46 13 39 338 306 315 345 334 307 57 7 345 287 268 273 358 2 325 343 325 247 231 216 220 214 229 186 161 175 206 213 159 271 245 222 230 228 262 226 241 252
16 292 5 34 68 348 297 295 269 315 335 329 281 122 299 313 338 346 338 330 321 360 3 354 293 271 286 13 329 223 207 197 114 97 199 170 248 265 237 217 227 212 281 301 315
36 11 336 28 79 128 323 297 313 318 290 306 319 331 335 312 285 283 292 294 335 312 300 288 233 247 247 226 130 199 211 199 194 190 209 224 254 287 275 246 249 254 286 297 301
23 350 28 329 328 315 178 257 293 304 245 267 268 253 308 277 287 278 286 303 296 286 288 315 276 277 269 267 258 259 234 208 213 225 210 206 219 241 247 270 278 250 282 305 301
337 22 341 252 237 250 279 232 277 284 260 285 289 288 287 269 269 283 287 284 284 279 268 280 272 301 298 296 272 253 250 229 225 228 242 252 250 251 254 215 254 256 268 280 287
247 255 198 225 187 210 238 240 254 285 278 260 261 280 287 272 272 278 272 270 267 270 269 262 264 264 270 284 298 260 230 234 242 215 217 230 232 233 266 220 243 257 248 257 274